Pratica di Mare, Italy

5:27 PM CEST on April 25, 2017 (GMT +0200)
Pratica Di Mare Mil

Weather History for LIRE - November, 2013

Change the Weather History Date:

Sunday, November 10, 2013

  Actual Average Record
Temperature  
Mean Temperature 60 °F -  
Max Temperature 68 °F 61 °F 70 °F (2014)
Min Temperature 53 °F 45 °F 39 °F (2007)
Degree Days  
Heating Degree Days 4    
Growing Degree Days 10 (Base 50)    
Moisture  
Dew Point 56 °F    
Average Humidity 79    
Maximum Humidity 94    
Minimum Humidity 51    
Precipitation  
Precipitation 0.12 in 0.15 in - ()
Sea Level Pressure  
Sea Level Pressure 29.78 in    
Wind  
Wind Speed 14 mph ()    
Max Wind Speed 33 mph    
Max Gust Speed 45 mph    
Visibility 5.8 miles    
Events Rain , Thunderstorm    
Averages and records for this station are not official NWS values.
T = Trace of Precipitation, MM = Missing Value Source: Averaged Metar Reports

Daily Weather History Graph

Daily Weather History Graph

Search for Another Location

Airport or City:

Trip Planner

Search our weather history database for the weather conditions in past years. The results will help you decide how hot, cold, wet, or windy it might be!

Date:

Astronomy

Nov. 10, 2013 Rise Set
Actual Time 6:53 AM CET 4:54 PM CET
Civil Twilight 6:23 AM CET 5:24 PM CET
Nautical Twilight 5:50 AM CET 5:57 PM CET
Astronomical Twilight 5:17 AM CET 6:30 PM CET
Moon 12:55 PM CET (11/10) No Moon Set
Length of Visible Light 11h 00m
Length of Day
10h 01m
First Quarter, 52% of the Moon is Illuminated
Nov 10
First Quarter
Nov 17
Full
Nov 25
Last Quarter
Dec 3
New
Dec 9
First Quarter

Hourly Weather History & Observations

Time (CET) Temp. Dew Point Humidity Pressure Visibility Wind Dir Wind Speed Gust Speed Precip Events Conditions
12:55 AM 64.4 °F 55.4 °F 73% 29.98 in 6.2 mi West 15.0 mph - N/A   Partly Cloudy
1:00 AM 64 °F 55 °F 65% 29.99 in 9 mi West 15.0 mph - -   Scattered Clouds
1:55 AM 62.6 °F 57.2 °F 82% 29.98 in 6.2 mi South 10.4 mph - N/A   Partly Cloudy
2:55 AM 60.8 °F 53.6 °F 77% 29.98 in 6.2 mi SSW 5.8 mph - N/A   Partly Cloudy
3:55 AM 62.6 °F 55.4 °F 77% 29.95 in 6.2 mi NNW 5.8 mph - N/A   Partly Cloudy
4:00 AM 62 °F 56 °F 75% 29.97 in 7 mi NNW 5.8 mph - -   Scattered Clouds
4:55 AM 60.8 °F 53.6 °F 77% 29.95 in 6.2 mi West 6.9 mph - N/A   Partly Cloudy
5:55 AM 60.8 °F 53.6 °F 77% 29.92 in 6.2 mi Calm Calm - N/A   Partly Cloudy
6:55 AM 57.2 °F 53.6 °F 88% 29.92 in 6.2 mi East 6.9 mph - N/A   Partly Cloudy
7:00 AM 57 °F 53 °F 82% 29.94 in 7 mi East 6.9 mph - -   Scattered Clouds
7:55 AM 57.2 °F 51.8 °F 82% 29.92 in 6.2 mi East 6.9 mph - N/A   Scattered Clouds
8:55 AM 59.0 °F 53.6 °F 82% 29.92 in 6.2 mi East 10.4 mph - N/A   Scattered Clouds
9:55 AM 66.2 °F 51.8 °F 60% 29.89 in 6.2 mi West 15.0 mph - N/A   Scattered Clouds
10:00 AM 66 °F 52 °F 51% 29.90 in 9 mi West 15.0 mph - -   Mostly Cloudy
10:55 AM 66.2 °F 55.4 °F 68% 29.89 in 6.2 mi West 19.6 mph - N/A   Mostly Cloudy
11:55 AM 66.2 °F 57.2 °F 73% 29.89 in 6.2 mi West 21.9 mph - N/A   Mostly Cloudy
12:05 PM 64.4 °F 59.0 °F 83% 29.86 in 4.3 mi West 21.9 mph - N/A Rain Rain
12:55 PM 64.4 °F 57.2 °F 77% 29.83 in 6.2 mi WSW 20.7 mph - N/A Rain Light Rain
1:00 PM 64 °F 58 °F 74% 29.85 in 6 mi WSW 20.7 mph - - Rain Light Rain
1:55 PM 64.4 °F 57.2 °F 77% 29.80 in 6.2 mi WSW 13.8 mph - N/A   Scattered Clouds
2:55 PM 64.4 °F 57.2 °F 77% 29.77 in 6.2 mi West 16.1 mph - N/A Rain Light Rain
3:55 PM 62.6 °F 59.0 °F 88% 29.74 in 4.3 mi West 20.7 mph - N/A Rain Light Rain
4:00 PM 63 °F 59 °F 81% 29.75 in 4 mi West 20.7 mph - - Rain Light Rain
4:55 PM 62.6 °F 59.0 °F 88% 29.71 in 5.0 mi West 16.1 mph - N/A Rain Light Rain
5:04 PM 62.6 °F 57.2 °F 82% 29.68 in 5.0 mi West 31.1 mph 42.6 mph N/A Rain Light Rain
5:55 PM 64.4 °F 53.6 °F 68% 29.68 in 5.0 mi WSW 33.4 mph 44.9 mph N/A   Scattered Clouds
6:55 PM 62.6 °F 59.0 °F 88% 29.62 in 5.0 mi WSW 31.1 mph 43.7 mph N/A   Scattered Clouds
7:00 PM 63 °F 58 °F 80% 29.65 in 5 mi WSW 31.1 mph - -   Mist
7:55 PM 62.6 °F 57.2 °F 82% 29.59 in 5.0 mi WSW 31.1 mph 44.9 mph N/A   Scattered Clouds
8:55 PM 62.6 °F 57.2 °F 82% 29.53 in 5.0 mi WSW 25.3 mph - N/A   Mostly Cloudy
9:10 PM 60.8 °F 59.0 °F 94% 29.53 in 4.3 mi West 28.8 mph - N/A Rain Rain
9:55 PM 62.6 °F 57.2 °F 82% 29.50 in 5.0 mi West 27.6 mph - N/A Rain Light Rain
10:00 PM 63 °F 58 °F 78% 29.53 in 5 mi West 27.6 mph - - Rain Light Rain
10:55 PM 55.4 °F 53.6 °F 94% 29.50 in 5.0 mi NNE 13.8 mph - N/A Rain Light Rain
11:08 PM 53.6 °F 51.8 °F 94% 29.50 in 5.0 mi NNE 16.1 mph - N/A Rain , Thunderstorm Light Thunderstorms and Rain
11:55 PM 53.6 °F 50.0 °F 88% 29.47 in 5.0 mi NNE 12.7 mph - N/A Rain , Thunderstorm Light Thunderstorms and Rain